Location: Diebersbach
(48.5163°N, 8.0558°E)
Time: 09:14:35
(UTC+00:00)

USA 229 DEB - Pass Details

Date: 20 June 2021
Orbit: 955 x 1257 km, 63.4° (Epoch: 25 July)

Event Time Altitude Azimuth Distance (km) Brightness Sun altitude
Exits shadow 00:22:26 23° 217° (SW) 1,961 4.6 -17.1°
Maximum altitude 00:26:41 86° 129° (SE) 1,033 3.6 -16.9°
Drops below altitude 10° 00:33:35 10° 42° (NE) 2,930 7.0 -16.6°
Sets 00:36:21 0° 42° (NE) 3,936 7.8 -16.5°
